{"data":{"norad_id":55485,"intl_designator":"2023-015AN","name":"STARLINK-5695","alt_names":[],"object_type":"PAYLOAD","status":"ACTIVE","operator":null,"country":"US","launch_date":"2023-02-02","launch_site_code":"AFETR","launch_vehicle":null,"mission":null,"orbit_class":"UNKNOWN","rcs_meters":null,"size_class":null,"mass_kg":null,"dimensions":null,"purposes":["comms"],"wikipedia_slug":null,"has_3d_model":false,"image_url":null,"decayed_at":null,"tle_current":{"epoch":"2026-09-20T11:35:27.899520Z","epoch_age_seconds":101857,"freshness":"FRESH","line1":"1 55485U 23015AN  26263.48296180  .00000069  00000+0  12043-4 0  9993","line2":"2 55485  43.0052 319.8795 0001753 288.3918  71.6742 15.27576716200387","mean_motion":15.27576716,"eccentricity":0.0001753,"inclination_deg":43.0052,"raan_deg":319.8795,"arg_perigee_deg":288.3918,"mean_anomaly_deg":71.6742,"bstar":1.2043e-5,"rev_number":20038,"period_min":94.266951369269,"perigee_km":481.85616188824,"apogee_km":484.26169718113,"semimajor_km":6861.1959295347,"source":"CELESTRAK","updated_at":"2026-09-21T09:00:33.236096Z"}}}